TimePST,TemperatureF,Dew PointF,Humidity,Sea Level PressureIn,VisibilityMPH,Wind Direction,Wind SpeedMPH,Gust SpeedMPH,PrecipitationIn,Events,Conditions,WindDirDegrees,DateUTC
12:53 AM,53.1,43.0,69,30.01,10.0,Calm,Calm,-,N/A,,Clear,0,2011-11-30 08:53:00
1:53 AM,51.1,43.0,74,30.03,10.0,Calm,Calm,-,N/A,,Clear,0,2011-11-30 09:53:00
2:53 AM,50.0,43.0,77,30.02,10.0,Calm,Calm,-,N/A,,Partly Cloudy,0,2011-11-30 10:53:00
3:15 AM,50.0,44.6,82,30.01,10.0,Calm,Calm,-,N/A,,Mostly Cloudy,0,2011-11-30 11:15:00
3:34 AM,50.0,42.8,76,30.00,10.0,Calm,Calm,-,N/A,,Scattered Clouds,0,2011-11-30 11:34:00
3:53 AM,48.9,43.0,80,29.99,10.0,Calm,Calm,-,N/A,,Clear,0,2011-11-30 11:53:00
4:53 AM,48.0,42.1,80,29.99,10.0,Calm,Calm,-,N/A,,Clear,0,2011-11-30 12:53:00
5:53 AM,48.0,41.0,77,30.00,10.0,Calm,Calm,-,N/A,,Clear,0,2011-11-30 13:53:00
6:53 AM,48.0,42.1,80,30.01,9.0,Calm,Calm,-,N/A,,Partly Cloudy,0,2011-11-30 14:53:00
7:53 AM,52.0,48.0,86,29.99,8.0,Calm,Calm,-,N/A,,Partly Cloudy,0,2011-11-30 15:53:00
8:53 AM,57.0,44.1,62,29.98,10.0,Calm,Calm,-,N/A,,Clear,0,2011-11-30 16:53:00
9:53 AM,62.1,41.0,46,29.97,10.0,Calm,Calm,-,N/A,,Clear,0,2011-11-30 17:53:00
10:53 AM,64.0,48.9,58,29.94,9.0,Calm,Calm,-,N/A,,Unknown,0,2011-11-30 18:53:00
11:53 AM,66.9,51.1,57,29.89,7.0,South,4.6,-,N/A,,Unknown,190,2011-11-30 19:53:00
12:53 PM,68.0,54.0,61,29.86,7.0,SSW,5.8,-,N/A,,Clear,200,2011-11-30 20:53:00
1:53 PM,66.9,52.0,59,29.81,8.0,SSW,6.9,-,N/A,,Clear,200,2011-11-30 21:53:00
3:53 PM,60.1,52.0,75,29.79,7.0,South,6.9,-,N/A,,Partly Cloudy,190,2011-11-30 23:53:00
4:26 PM,59.0,51.8,77,29.81,7.0,South,4.6,-,N/A,,Mostly Cloudy,180,2011-12-01 00:26:00
4:53 PM,59.0,51.1,75,29.81,8.0,South,3.5,-,N/A,,Overcast,170,2011-12-01 00:53:00
5:17 PM,59.0,51.8,77,29.80,9.0,Calm,Calm,-,N/A,,Scattered Clouds,0,2011-12-01 01:17:00
5:53 PM,59.0,51.1,75,29.79,9.0,South,4.6,-,N/A,,Overcast,170,2011-12-01 01:53:00
6:18 PM,57.2,50.0,77,29.77,9.0,South,3.5,-,N/A,,Scattered Clouds,170,2011-12-01 02:18:00
6:39 PM,59.0,51.8,77,29.77,9.0,Calm,Calm,-,N/A,,Mostly Cloudy,0,2011-12-01 02:39:00
6:53 PM,59.0,51.1,75,29.78,8.0,Calm,Calm,-,N/A,,Overcast,0,2011-12-01 02:53:00
7:17 PM,57.2,50.0,77,29.77,9.0,South,5.8,-,N/A,,Scattered Clouds,190,2011-12-01 03:17:00
7:53 PM,57.9,50.0,75,29.76,9.0,SE,5.8,-,N/A,,Clear,130,2011-12-01 03:53:00
9:53 PM,55.9,48.9,77,29.76,9.0,Calm,Calm,-,N/A,,Overcast,0,2011-12-01 05:53:00
10:53 PM,53.1,48.0,83,29.77,8.0,Calm,Calm,-,N/A,,Overcast,0,2011-12-01 06:53:00
11:53 PM,53.1,48.0,83,29.76,7.0,Calm,Calm,-,N/A,,Partly Cloudy,0,2011-12-01 07:53:00